Other Public Products
Issued by NWS Grand Forks, ND

Home | Current Version | Previous Version | Graphics & Text | Print | Product List | Glossary On
Versions: 1 2 3 4 5 6 7 8 9 10 11 12 13 14 15 16 17 18 19 20 21 22 23 24 25 26 27 28 29 30 31 32 33 34 35 36 37 38 39 40 41 42 43 44 45 46 47 48 49 50
000
FPUS83 KFGF 242231
OPUFGF
PRAIRIE TO PINES WEATHER ROUNDUP
NATIONAL WEATHER SERVICE EASTERN NORTH DAKOTA/GRAND FORKS ND
500 PM CDT FRI MAR 24 2017

 **SATELLITE DATA USED TO AUGMENT SKY COVER AT AUTOMATED STATIONS**
 *****  WEATHER ACROSS EASTERN NORTH DAKOTA  *****

CITY           SKY/WX    TMP DP  RH WIND       PRES   REMARKS
GRAND FORKS    CLOUDY    36  28  73 N9        30.22F
GRAND FORKS AF CLOUDY    34  28  77 NE8       30.22F
GRAND CITY NWS NOT AVBL
BUXTON         NOT AVBL
DEVILS LAKE    CLOUDY    33  26  75 NE8       30.21S
FARGO          CLOUDY    38  32  79 N17       30.19R
WAHPETON ARPT  FAIR      41  32  70 N14       30.17R
$$

 *****  WEATHER ACROSS CENTRAL AND WESTERN NORTH DAKOTA  *****

CITY           SKY/WX    TMP DP  RH WIND       PRES   REMARKS
JAMESTOWN      CLOUDY    35  29  78 N10       30.18S
BISMARCK       FAIR      47  34  60 E12       30.15F
MINOT          FAIR      41  30  65 E13       30.14F
MINOT AFB      FAIR      37  29  74 SE15      30.13F
GARRISON         N/A     42  32  67 E13       30.12F
WILLISTON      FAIR      59  32  36 SE13G22   30.01F
DICKINSON      FAIR      57  33  40 SE10      30.03F
HETTINGER      FAIR      58  34  40 SE9       30.07F
$$

 *****  OTHER OBSERVATIONS NORTHEAST NORTH DAKOTA  *****

CITY           SKY/WX    TMP DP  RH WIND       PRES   REMARKS
WALHALLA       NOT AVBL
LANGDON        CLOUDY    32  27  80 E8        30.20F WCI  25
CAVALIER         N/A     34  25  69 NE7       30.24S
GRAFTON        CLOUDY    34  28  80 N12       30.25S
CANDO          NOT AVBL
FORT TOTTEN      N/A     35  27  71 E6        29.95S
ROLLA          CLOUDY    30  27  86 E7        30.18S WCI  23
RUGBY            N/A     32  28  86 E9        30.18S WCI  24
 ***** THE ABOVE OBSERVATIONS ARE NON NWS ARE NOT QUALITY
        CONTROLLED AND MAY MIS-REPORT RAIN FOR SNOW...
$$

 *****  OTHER OBSERVATIONS SOUTHEAST NORTH DAKOTA *****

CITY           SKY/WX    TMP DP  RH WIND       PRES   REMARKS
COOPERSTOWN    CLOUDY    32  28  86 N12       30.20S WCI  23
VALLEY CITY    CLOUDY    36  32  87 NE8G16    30.20S
OAKES          NOT AVBL
GWINNER        PTCLDY    43  34  70 MISG      30.16S
SHEYENNE NWR     N/A     38  28  68 NE14      29.95S
BUFFALO        NOT AVBL
WYNDMERE         N/A     41  34  75 VRB13       N/A
 ***** THE ABOVE OBSERVATIONS ARE NON NWS ARE NOT QUALITY
       CONTROLLED AND MAY MIS-REPORT RAIN FOR SNOW...
$$

  *****  WEATHER ACROSS NORTHERN MINNESOTA  *****

CITY           SKY/WX    TMP DP  RH WIND       PRES   REMARKS
FLAG ISLAND    CLOUDY    34  25  69 N9        30.21S
WARROAD        CLOUDY    36  27  69 NE6       30.21F
ROSEAU         PTSUNNY   37  28  70 N6        30.21S
HALLOCK        CLOUDY    34  28  80 NW8       30.23R
THF RVR FALLS  CLOUDY   N/A N/A N/A N12       30.20S
HALSTAD          N/A     38  32  80 N13         N/A
FOSSTON        PTSUNNY   43  32  65 N6        30.17S
BAUDETTE       CLOUDY    39  26  59 N10       30.18R
WASKISH        CLOUDY    39  30  70 CALM      30.17R
CROOKSTON      CLOUDY    36  32  87 N12       30.21F
$$
  *****  WEATHER ACROSS CENTRAL AND WEST MINNESOTA  *****

CITY           SKY/WX    TMP DP  RH WIND       PRES   REMARKS
BEMIDJI        PTSUNNY   42  30  63 N6        30.15R
PARK RAPIDS    PTSUNNY   43  28  55 N8        30.13S
WADENA         FAIR      43  32  65 N7        30.13R
DETROIT LAKES  FAIR      43  32  65 N6        30.16R
MOORHEAD       PTSUNNY   37  32  81 N17       30.19S
FERGUS FALLS   FAIR      45  32  61 N8        30.18R
ELBOW LAKE     FAIR      44  34  68 NW8       30.14R
MORRIS MN      PTSUNNY   45  36  70 E5        30.13S
STAPLES        PTSUNNY   43  30  61 E8        30.14R
WHEATON        FAIR      43  32  65 N10       30.18R
$$
  *****  WEATHER ELSEWHERE ACROSS MINNESOTA  *****

CITY           SKY/WX    TMP DP  RH WIND       PRES   REMARKS
DULUTH         CLOUDY    37  33  85 SE5       30.13R
INTRNTL FALLS  CLOUDY    38  24  57 NE5       30.18R
ELY            CLOUDY    36  30  80 CALM      30.15R
CLOQUET        CLOUDY    37  32  81 E7        30.14R
BRAINERD       CLOUDY    40  32  73 E9        30.14R
HIBBING        CLOUDY    36  32  85 NE7       30.14R
ALEXANDRIA     CLOUDY    43  34  70 NE7       30.12S
SAINT CLOUD    CLOUDY    39  33  79 N12       30.13R
MINNEAPOLIS    CLOUDY    44  35  70 N14       30.08R
$$

  *****  WEATHER ACROSS SOUTH DAKOTA  *****

CITY           SKY/WX    TMP DP  RH WIND       PRES   REMARKS
SIOUX FALLS    CLOUDY    42  37  82 NE18      30.06F
BROOKINGS      CLOUDY    37  34  87 N15       30.09F
WATERTOWN      FAIR      39  33  79 NE14      30.11S
HURON          FAIR      47  36  65 NE14      30.11F
SISSETON         N/A     45  35  68 NE14      30.15R
ABERDEEN       FAIR      49  30  48 NE10      30.14F
MITCHELL       FAIR      48  38  68 N17       30.10S
PIERRE         FAIR      57  32  38 E15       30.09S
MOBRIDGE       FAIR      58  31  35 E5        30.09S
RAPID CITY     FAIR      61  30  31 NE12      30.06F
$$

  *****  SOME WEATHER IN NEARBY STATES *****

CITY           SKY/WX    TMP DP  RH WIND       PRES   REMARKS
GLASGOW MT     FAIR      62  27  26 S20       29.89F
GREAT FALLS MT FAIR      64  17  16 S20G33    29.74F
CHEYENNE WY    FAIR      50  21  32 N17G24    30.12F
SCOTTSBLUFF NE CLOUDY    59  26  28 NE18      30.09S
OMAHA NE       LGT RAIN  44  40  85 N14       29.96R FOG
DES MOINES IA  CLOUDY    50  46  86 N10       29.94S FOG
DAVENPORT IA   PTSUNNY   68  44  42 W20       29.93R
CHICAGO IL     CLOUDY    78  42  27 W10       29.89R
EAU CLAIRE WI  CLOUDY    42  37  82 N12       30.07R
LA CROSSE WI   CLOUDY    43  39  86 N9G17     30.03S FOG
$$

  *****  SOME NATIONAL WEATHER *****

CITY           SKY/WX    TMP DP  RH WIND       PRES   REMARKS
LA GUARDIA NY  PTSUNNY   58  32  37 SW9       30.12F
RALEIGH NC     FAIR      69  46  43 SW23      30.34F
ATLANTA GA     PTSUNNY   72  49  44 S7        30.29F
NEW ORLEANS LA CLOUDY    76  65  68 SE22G29   30.15F
OKLAHOMA CITY  PTSUNNY   75  26  16 SW20G37   29.67S
ALBUQUERQUE NM FAIR      67  21  17 NW23G29   30.03F
SALT LAKE CITY FAIR      58  33  39 S17       30.12F
LOS ANGELES CA FAIR      64  53  67 W17       30.20F
BOISE ID       LGT RAIN  50  39  66 S13       29.98R
SEATTLE WA     LGT RAIN  49  45  86 SW12      29.84R
$$

*** WEATHER ACROSS MANITOBA...SASKATCHEWAN AND ONTARIO ***
                ***ONTARIO***

CITY           SKY/WX    TMP DP  RH WIND       PRES   REMARKS
GERALDTON      MOSUNNY   30   3  31 NE12G21   30.21R WCI  21
THUNDER BAY    PTSUNNY   37  25  60 NE9       30.19R
SIOUX LOOKOUT  MOSUNNY   36  18  48 N3        30.21R
TORONTO        CLOUDY    54  43  66 NE5       29.92R
BIG TROUT LK   SUNNY     16  -2  45 NW8       30.36R WCI   5
PICKLE LAKE    MOSUNNY   28  -6  22 NE9       30.26R WCI  20
DRYDEN         MOSUNNY   34  21  60 E3        30.20R
KENORA         PTSUNNY   34  23  64 NE5       30.21S
$$
                *** MANITOBA***

CITY           SKY/WX    TMP DP  RH WIND       PRES   REMARKS
BRANDON        PTSUNNY   32  23  69 E8        30.20F WCI  25
DAUPHIN        PTSUNNY   32  23  69 E9        30.22F WCI  24
ISLAND LAKE    MOSUNNY   19   3  49 SE10      30.34S WCI   8
PILOT MOUND      N/A     30  23  74 E6          N/A  WCI  24
THE PAS        CLOUDY    21   7  53 E9        30.23F WCI  11
THOMPSON       PTSUNNY   16  -6  38 CALM      30.31F
WINNIPEG       CLOUDY    32  23  69 NE7       30.24
LYNN LAKE      MOSUNNY   19   7  58 S10       30.19F WCI   8
CHURCHILL      MOSUNNY    1  -9  60 W6        30.41F WCI -10
GILLAM         MOSUNNY   14  -9  34 N2        30.40F
$$
                ***SASKATCHEWAN***

CITY           SKY/WX    TMP DP  RH WIND       PRES   REMARKS
ESTEVAN        MOSUNNY   39  34  81 E20       30.06F
KINDERSLEY     CLOUDY    48  34  57 SE14      29.81F
LLOYDMINSTER   CLOUDY    34  30  86 E18       29.84F WCI  23
PRINCE ALBERT  CLOUDY    34  23  64 E14G20    30.05F WCI  24
REGINA         CLOUDY    41  34  75 SE24G31   30.00F
YORKTON        MOSUNNY   36  27  69 SE15      30.12F



USA.gov is the U.S. government's official web portal to all federal, state and local government web resources and services.